Location: Bacharowice
(49.9333°N, 19.5833°E)
Time: 08:50:35
(UTC+00:00)

Gbstr 26 Del rocket - Pass Details

Date: 11 May 2021
Orbit: 493 x 1263 km, 51.8° (Epoch: 21 June)

Event Time Altitude Azimuth Distance (km) Brightness Sun altitude
Rises 22:12:19 0° 293° (WNW) 4,045 7.6 -21.7°
Reaches altitude 10° 22:15:21 10° 289° (WNW) 2,990 6.8 -21.8°
Maximum altitude 22:22:18 54° 215° (SW) 1,168 4.1 -21.9°
Enters shadow 22:23:51 44° 171° (S) 1,278 4.1 -21.9°
